• En España
  • Lista de países
  • Para 7 días
  • Temperatura del agua
  • Mapa Satelital
  • El tiempo en el mapa
  • Informadores
  • user-avatar
    Iniciar sesión

    Tiempo cada hora Povoa de Santo Adriao

    Hoy, 24 Noviembre, Viernes

    Tiempo Temperatura Precipitaciones Viento Presión Humedad
    00:00 +16°C° 0 mm 3 mps 758 mmHg 96%
    01:00 +16°C° 0 mm 3 mps 758 mmHg 96%
    02:00 +16°C° 0 mm 3 mps 758 mmHg 97%
    03:00 +15°C° 0,3 mm 4 mps 758 mmHg 96%
    04:00 +15°C° 0,3 mm 4 mps 758 mmHg 96%
    05:00 +15°C° 0 mm 4 mps 758 mmHg 96%
    06:00 +15°C° 0,4 mm 4 mps 758 mmHg 93%
    07:00 +17°C° 0,4 mm 4 mps 759 mmHg 90%
    08:00 +16°C° 0,4 mm 5 mps 759 mmHg 87%
    09:00 +19°C° 0,2 mm 5 mps 759 mmHg 78%
    10:00 +20°C° 0,2 mm 5 mps 759 mmHg 69%
    11:00 +22°C° 0,2 mm 6 mps 759 mmHg 60%
    12:00 +22°C° 0 mm 6 mps 758 mmHg 57%
    13:00 +22°C° 0 mm 6 mps 758 mmHg 54%
    14:00 +23°C° 0 mm 6 mps 758 mmHg 51%
    15:00 +21°C° 0 mm 5 mps 758 mmHg 59%
    16:00 +20°C° 0 mm 4 mps 758 mmHg 67%
    17:00 +18°C° 0 mm 3 mps 758 mmHg 75%
    18:00 +18°C° 0 mm 3 mps 758 mmHg 76%
    19:00 +17°C° 0 mm 3 mps 759 mmHg 78%
    20:00 +17°C° 0 mm 3 mps 759 mmHg 80%
    21:00 +16°C° 0 mm 2 mps 759 mmHg 80%
    22:00 +16°C° 0 mm 2 mps 759 mmHg 80%
    23:00 +15°C° 0 mm 1 mps 759 mmHg 80%

    Mañana, 25 Noviembre, Sábado

    Tiempo Temperatura Precipitaciones Viento Presión Humedad
    00:00 +15°C° 0 mm 1 mps 759 mmHg 79%
    01:00 +15°C° 0 mm 1 mps 759 mmHg 78%
    02:00 +15°C° 0 mm 1 mps 759 mmHg 77%
    03:00 +15°C° 0 mm 1 mps 759 mmHg 76%
    04:00 +15°C° 0 mm 2 mps 759 mmHg 74%
    05:00 +15°C° 0 mm 2 mps 759 mmHg 72%
    06:00 +16°C° 0 mm 2 mps 760 mmHg 71%
    07:00 +16°C° 0 mm 2 mps 760 mmHg 69%
    08:00 +16°C° 0 mm 2 mps 760 mmHg 67%
    09:00 +17°C° 0,1 mm 2 mps 761 mmHg 66%
    10:00 +17°C° 0,1 mm 2 mps 761 mmHg 66%
    11:00 +18°C° 0,1 mm 2 mps 761 mmHg 65%
    12:00 +18°C° 0 mm 2 mps 761 mmHg 64%
    13:00 +19°C° 0 mm 2 mps 761 mmHg 64%
    14:00 +19°C° 0 mm 2 mps 761 mmHg 63%
    15:00 +18°C° 0 mm 2 mps 761 mmHg 66%
    16:00 +17°C° 0 mm 2 mps 761 mmHg 69%
    17:00 +17°C° 0 mm 2 mps 761 mmHg 72%
    18:00 +17°C° 0 mm 2 mps 762 mmHg 73%
    19:00 +16°C° 0 mm 3 mps 762 mmHg 73%
    20:00 +16°C° 0 mm 3 mps 762 mmHg 74%
    21:00 +16°C° 0 mm 3 mps 762 mmHg 74%
    22:00 +16°C° 0 mm 3 mps 762 mmHg 74%
    23:00 +16°C° 0 mm 3 mps 762 mmHg 74%

    Pasado mañana, 26 Noviembre, Domingo

    Tiempo Temperatura Precipitaciones Viento Presión Humedad
    00:00 +16°C° 0 mm 3 mps 762 mmHg 74%
    01:00 +16°C° 0 mm 3 mps 763 mmHg 74%
    02:00 +16°C° 0 mm 3 mps 763 mmHg 74%
    03:00 +16°C° 0 mm 3 mps 763 mmHg 74%
    04:00 +14°C° 0 mm 4 mps 763 mmHg 74%
    05:00 +14°C° 0 mm 4 mps 763 mmHg 74%
    06:00 +15°C° 0 mm 4 mps 763 mmHg 73%
    07:00 +15°C° 0 mm 4 mps 764 mmHg 72%
    08:00 +15°C° 0 mm 4 mps 764 mmHg 71%
    09:00 +16°C° 0 mm 5 mps 764 mmHg 68%
    10:00 +17°C° 0 mm 5 mps 764 mmHg 66%
    11:00 +19°C° 0 mm 5 mps 765 mmHg 64%
    12:00 +19°C° 0 mm 5 mps 764 mmHg 62%
    13:00 +20°C° 0 mm 5 mps 764 mmHg 60%
    14:00 +20°C° 0 mm 4 mps 763 mmHg 58%
    15:00 +19°C° 0 mm 4 mps 764 mmHg 63%
    16:00 +18°C° 0 mm 4 mps 764 mmHg 67%
    17:00 +15°C° 0 mm 4 mps 764 mmHg 72%
    18:00 +15°C° 0 mm 4 mps 764 mmHg 72%
    19:00 +15°C° 0 mm 4 mps 764 mmHg 73%
    20:00 +14°C° 0 mm 4 mps 765 mmHg 73%
    21:00 +14°C° 0 mm 4 mps 764 mmHg 72%
    22:00 +14°C° 0 mm 4 mps 764 mmHg 71%
    23:00 +14°C° 0 mm 4 mps 764 mmHg 69%

    27 Noviembre, Lunes

    Tiempo Temperatura Precipitaciones Viento Presión Humedad
    00:00 +14°C° 0,1 mm 4 mps 764 mmHg 70%
    01:00 +14°C° 0,1 mm 4 mps 764 mmHg 70%
    02:00 +14°C° 0,1 mm 5 mps 764 mmHg 71%
    03:00 +14°C° 0 mm 5 mps 763 mmHg 70%
    04:00 +14°C° 0 mm 5 mps 763 mmHg 69%
    05:00 +14°C° 0 mm 6 mps 763 mmHg 69%
    06:00 +14°C° 0 mm 5 mps 763 mmHg 68%
    07:00 +15°C° 0 mm 5 mps 764 mmHg 67%
    08:00 +15°C° 0 mm 5 mps 764 mmHg 66%
    09:00 +16°C° 0 mm 5 mps 764 mmHg 64%
    10:00 +17°C° 0 mm 5 mps 764 mmHg 63%
    11:00 +19°C° 0 mm 5 mps 764 mmHg 62%
    12:00 +19°C° 0 mm 5 mps 763 mmHg 62%
    13:00 +19°C° 0 mm 4 mps 763 mmHg 62%
    14:00 +19°C° 0 mm 4 mps 762 mmHg 63%
    15:00 +18°C° 0,2 mm 3 mps 762 mmHg 66%
    16:00 +17°C° 0,2 mm 3 mps 762 mmHg 69%
    17:00 +16°C° 0,2 mm 2 mps 762 mmHg 72%
    18:00 +16°C° 0,5 mm 3 mps 762 mmHg 75%
    19:00 +16°C° 0,5 mm 3 mps 762 mmHg 79%
    20:00 +15°C° 0,5 mm 4 mps 762 mmHg 82%
    21:00 +14°C° 0,1 mm 4 mps 762 mmHg 83%
    22:00 +14°C° 0,1 mm 4 mps 761 mmHg 84%
    23:00 +14°C° 0,1 mm 4 mps 761 mmHg 85%

    28 Noviembre, Martes

    Tiempo Temperatura Precipitaciones Viento Presión Humedad
    00:00 +14°C° 0 mm 4 mps 761 mmHg 85%
    01:00 +14°C° 0 mm 4 mps 760 mmHg 85%
    02:00 +14°C° 0 mm 4 mps 760 mmHg 85%
    03:00 +14°C° 0,5 mm 5 mps 759 mmHg 86%
    04:00 +14°C° 0,5 mm 5 mps 759 mmHg 88%
    05:00 +14°C° 0,5 mm 5 mps 759 mmHg 90%
    06:00 +14°C° 0,5 mm 5 mps 758 mmHg 90%
    07:00 +14°C° 0,5 mm 6 mps 758 mmHg 90%
    08:00 +14°C° 0,5 mm 6 mps 758 mmHg 90%
    09:00 +15°C° 0,1 mm 6 mps 758 mmHg 86%
    10:00 +16°C° 0,1 mm 6 mps 757 mmHg 83%
    11:00 +17°C° 0,1 mm 6 mps 757 mmHg 79%
    12:00 +17°C° 0,4 mm 6 mps 756 mmHg 79%
    13:00 +19°C° 0,4 mm 5 mps 755 mmHg 78%
    14:00 +19°C° 0,4 mm 5 mps 754 mmHg 78%
    15:00 +19°C° 1,7 mm 4 mps 754 mmHg 82%
    16:00 +18°C° 1,7 mm 4 mps 754 mmHg 86%
    17:00 +17°C° 1,7 mm 3 mps 753 mmHg 90%
    18:00 +17°C° 0,8 mm 3 mps 753 mmHg 91%
    19:00 +16°C° 0,8 mm 3 mps 753 mmHg 93%
    20:00 +16°C° 0,8 mm 3 mps 753 mmHg 95%
    21:00 +16°C° 0,3 mm 3 mps 753 mmHg 95%
    22:00 +16°C° 0,3 mm 3 mps 753 mmHg 95%
    23:00 +16°C° 0,3 mm 3 mps 752 mmHg 96%

    29 Noviembre, Miércoles

    Tiempo Temperatura Precipitaciones Viento Presión Humedad
    00:00 +16°C° 0,2 mm 3 mps 752 mmHg 95%
    01:00 +14°C° 0,2 mm 4 mps 752 mmHg 95%
    02:00 +14°C° 0,2 mm 4 mps 752 mmHg 95%
    03:00 +14°C° 0 mm 4 mps 752 mmHg 95%
    04:00 +14°C° 0 mm 5 mps 751 mmHg 94%
    05:00 +13°C° 0 mm 5 mps 751 mmHg 94%
    06:00 +13°C° 0 mm 5 mps 752 mmHg 91%
    07:00 +14°C° 0 mm 5 mps 752 mmHg 89%
    08:00 +14°C° 0 mm 5 mps 753 mmHg 86%
    09:00 +15°C° 0 mm 5 mps 753 mmHg 79%
    10:00 +16°C° 0 mm 5 mps 753 mmHg 72%
    11:00 +17°C° 0 mm 5 mps 753 mmHg 65%
    12:00 +17°C° 0 mm 5 mps 753 mmHg 60%
    13:00 +17°C° 0 mm 5 mps 753 mmHg 55%
    14:00 +19°C° 0 mm 5 mps 753 mmHg 50%
    15:00 +16°C° 0 mm 5 mps 753 mmHg 52%
    16:00 +15°C° 0 mm 5 mps 754 mmHg 54%
    17:00 +13°C° 0 mm 6 mps 754 mmHg 55%
    18:00 +11°C° 0 mm 6 mps 755 mmHg 56%
    19:00 +11°C° 0 mm 6 mps 755 mmHg 56%
    20:00 +10°C° 0 mm 6 mps 756 mmHg 56%
    21:00 +9°C° 0 mm 5 mps 756 mmHg 57%
    22:00 +8°C° 0 mm 5 mps 756 mmHg 58%
    23:00 +8°C° 0 mm 5 mps 757 mmHg 59%
    Mostrar más